Regional Weather Roundup
Issued by NWS

Home | Current Version | Previous Version | Graphics & Text | Print | Product List | Glossary On
Versions: 1 2 3 4 5 6 7 8 9 10 11 12 13 14 15 16 17 18 19 20 21 22 23 24 25 26 27 28 29 30 31 32 33 34 35 36 37 38 39 40 41 42 43 44 45 46 47 48 49 50
000
ASUS45 KCYS 180510
RWRWY

WYOMING REGIONAL WEATHER ROUNDUP
NATIONAL WEATHER SERVICE CHEYENNE WY
1000 PM MST FRI NOV 17 2017

NOTE:  "FAIR" INDICATES FEW OR NO CLOUDS BELOW 12,000 FEET
WITH NO SIGNIFICANT WEATHER AND/OR OBSTRUCTIONS TO VISIBILITY.

WYZ001-180600-
YELLOWSTONE NATIONAL PARK

CITY           SKY/WX    TMP DP  RH WIND       PRES   REMARKS
LK YELLOWSTONE   N/A      5   3  91 CALM      30.08R
W YELLOWSTONE  NOT AVBL

$$
WYZ002>013-054>058-071-098>099-180600-
NORTHERN WYOMING

CITY           SKY/WX    TMP DP  RH WIND       PRES   REMARKS
JACKSON        FAIR      25   9  50 W13       30.12R WCI  14
CODY           FAIR      29  14  53 W3        30.02R
GREYBULL       FAIR      31  19  61 NW13      30.00R WCI  21
WORLAND        FAIR      27  21  78 S3        30.01R
SHERIDAN       FAIR      27  19  72 NW8       29.96R WCI  19
BUFFALO        FAIR      30  12  47 NW21      29.94R WCI  17
GILLETTE       FAIR      32  23  69 NW14      29.92R WCI  22
HULETT         FAIR      34  25  69 W3        29.90R
NEWCASTLE      FAIR      32  30  93 NW9       29.88R WCI  24

$$
WYZ014>020-022>026-101>103-180600-
CENTRAL WYOMING

CITY           SKY/WX    TMP DP  RH WIND       PRES   REMARKS
BIG PINEY      FAIR      13   7  77 NW9       30.11R WCI   1
PINEDALE       FAIR      14  10  85 NW8       30.09R WCI   3
DUBOIS         MOCLDY    19   9  63 NW17G24   30.02R WCI   4
LANDER         FAIR      29  10  45 NW8       30.00R WCI  21
RIVERTON       FAIR      28  15  58 NW17      30.01R WCI  16
CASPER         CLOUDY    26  24  92 S7        29.97R WCI  18
DOUGLAS        CLOUDY    30  29  96 W13       29.94R WCI  20

$$
WYZ021-027>030-104>119-180600-
SOUTHERN WYOMING

CITY           SKY/WX    TMP DP  RH WIND       PRES   REMARKS
EVANSTON       FAIR      17  12  80 W13       30.18R WCI   4
KEMMERER       MOCLDY    23  18  80 W14       30.14  WCI  11
FORT BRIDGER   MOCLDY    21  18  89 W16       30.19R WCI   7
ROCK SPRINGS   FAIR      21  17  84 W18       30.10S WCI   6
DIXON          CLOUDY    24  19  83 W9        30.10R WCI  14
RAWLINS        CLOUDY    26  22  84 W12       30.01R WCI  16
LARAMIE        FAIR      26  21  81 W20       29.90R WCI  12
CHEYENNE       FAIR      33  25  72 N20G28    29.85R WCI  21
TORRINGTON     CLOUDY    37  31  78 NW14      29.86R WCI  28
PINE BLUFFS    FAIR      32  30  93 NW20G31   29.86R WCI  20

$$



USA.gov is the U.S. government's official web portal to all federal, state and local government web resources and services.